Location: Britsum
(53.2530°N, 5.7847°E)
Time: 23:58:47
(UTC+00:00)

Daily predictions for brighter satellites

Satellite Brightness Start Highest point End
(mag) Time Altitude Azimuth Time Altitude Azimuth Time Altitude Azimuth
USA 267 3.6 17:30:56 10° SE 17:37:28 68° SSW 17:44:01 10° WNW
Cosmos 2227 4.2 17:35:39 10° NNW 17:41:17 67° NE 17:46:53 10° SE
Cosmos 1805 3.3 17:39:08 10° S 17:42:55 53° E 17:46:43 10° NNE
Cosmos 1242 Rocket 2.4 17:40:36 10° S 17:44:08 68° E 17:47:39 10° NNE
ISS -1.3 17:43:31 10° W 17:46:02 20° SSW 17:48:32 10° SSE
Cosmos 2360 4.4 17:41:04 10° SW 17:46:49 79° WNW 17:52:34 10° NNE
Okean-O 4.1 17:43:53 10° E 17:46:59 19° ENE 17:50:04 10° NNE
SL-08 R/B 4.2 17:42:20 10° N 17:47:09 56° WNW 17:51:59 10° SW
Okean 2 4.2 17:44:08 10° NNW 17:48:13 57° W 17:52:17 10° S
Cosmos 1697 Rocket 3.0 17:43:25 10° SW 17:49:02 75° WNW 17:54:43 10° NNE
CZ-4 R/B 2.0 17:45:37 10° SE 17:49:29 38° ENE 17:53:22 10° N
SL-14 R/B 3.3 17:48:24 10° N 17:52:24 87° E 17:56:24 10° S
Cosmos 1908 Rocket 4.3 17:50:56 10° SSE 17:54:42 30° E 17:58:29 10° NNE
OBJECT-B 2.1 17:54:14 12° E 17:55:15 14° ENE 17:56:42 10° NNE
MOS 1-B 4.4 17:49:49 10° SSE 17:55:38 80° ENE 18:01:29 10° NNW
Cosmos 1733 3.1 17:52:39 10° S 17:56:24 81° E 18:00:09 10° NNE
Cosmos 2360 Rocket 3.8 17:54:48 10° ESE 17:56:57 12° E 17:59:06 10° ENE
MINOTAUR 4 R/B 4.0 17:54:46 10° NNE 17:58:17 87° WNW 18:01:46 10° SSW
Cosmos 1809 Rocket 4.4 17:53:55 10° S 17:59:55 66° E 18:05:58 10° NNE
Cosmos 1674 Rocket 3.6 17:57:11 10° N 18:01:37 87° ENE 18:06:03 10° S
Cosmos 1766 3.6 17:59:03 10° SSE 18:02:47 44° E 18:06:34 10° NNE
NOSS 7 (E) 4.4 18:00:19 10° NW 18:03:26 86° SW 18:07:14 10° SE
Cosmos 1025 Rocket 4.0 18:00:27 10° N 18:04:09 27° ENE 18:07:49 10° SE
Meteor 2-10 4.1 17:58:50 10° S 18:04:24 70° E 18:09:49 10° NNE
ATLAS 2AS CENTAUR R/B 3.9 17:59:53 10° WNW 18:06:48 38° N 18:13:22 10° ENE
YAOGAN 1 2.5 18:03:24 10° SSE 18:07:42 75° ENE 18:12:03 10° NNW
Cosmos 968 Rocket 4.1 18:04:45 10° SSE 18:09:26 34° ESE 18:14:06 10° NE
Okean O Rocket 1.6 18:07:13 10° SSE 18:11:33 69° ENE 18:15:57 10° N
SKYMED 2 3.8 18:08:13 10° NNE 18:12:35 78° WNW 18:16:56 10° SSW
Cosmos 2084 3.5 18:09:32 10° WSW 18:13:19 65° NW 18:17:09 10° NE
IRIDIUM 106 4.3 18:08:18 10° SSE 18:13:26 62° E 18:18:36 10° N
Meteor 2-5 Rocket 3.8 18:08:24 10° N 18:13:52 55° ENE 18:19:17 10° SSE
Lacrosse 4 Rocket 3.0 18:11:47 10° SE 18:13:56 15° ESE 18:13:56 15° ESE
Nadezhda 4 Rocket 4.0 18:10:38 10° S 18:16:51 62° E 18:23:04 10° NNE
Meteor 1-15 Rocket 4.4 18:13:14 10° SSE 18:18:32 48° E 18:23:53 10° NNE
CSL-04 Rocket 4.1 18:13:57 10° SE 18:18:56 41° ENE 18:24:00 10° N
NOSS 3-4 (A) 4.3 18:12:54 10° NW 18:19:01 43° NNE 18:24:38 15° E
NOSS 3-4 (C) 4.3 18:13:00 10° NW 18:19:07 43° NNE 18:24:44 15° E
Cosmos 2285 Rocket 4.1 18:14:00 10° NNW 18:20:22 83° WSW 18:26:46 10° SSE
USA 186 2.6 18:22:42 18° ESE 18:24:36 33° ENE 18:27:41 10° N
Cosmos 1726 2.1 18:21:16 10° SSW 18:24:55 84° WNW 18:28:36 10° N
Cosmos 2322 Rocket 3.0 18:20:29 10° SSE 18:25:18 29° ESE 18:30:07 10° NE
Cosmos 1378 Rocket 4.4 18:23:50 10° NNW 18:28:08 54° W 18:32:21 10° S
Cosmos 1975 Rocket 3.4 18:25:05 10° N 18:29:21 45° ENE 18:33:08 12° SE
Cosmos 1470 3.2 18:26:04 10° SSE 18:29:37 37° E 18:33:10 10° NNE
ARGOS Delta rocket 4.0 18:24:30 10° NNE 18:29:51 88° ESE 18:34:53 10° SSW
CZ-4B R/B 3.6 18:24:47 10° S 18:30:10 68° WSW 18:35:43 10° NNW
Cosmos 1980 Rocket 2.5 18:25:31 10° SW 18:31:08 71° NW 18:36:46 10° NNE
Ariane Rocket 4.5 18:36:15 17° ENE 18:37:35 19° NE 18:41:04 10° N
Cosmos 2292 Rocket 3.4 18:34:58 10° S 18:39:46 60° E 18:43:29 10° NNE
USA 215 3.2 18:36:54 11° ENE 18:43:16 86° SSE 18:49:50 10° WSW
IRS-1C Rocket 4.2 18:43:42 16° SE 18:47:47 56° ENE 18:52:57 10° N
Cosmos 1844 Rocket 2.6 18:43:04 10° NNW 18:48:48 78° ENE 18:52:59 19° SE
Landsat 5 3.9 18:50:02 10° NNE 18:54:23 46° E 18:58:39 10° S
Cosmos 2278 3.8 18:48:50 10° SW 18:54:32 80° WNW 19:00:15 10° NNE
Cosmos 1943 Rocket 4.2 18:51:27 10° NNW 18:54:34 15° NNE 18:57:29 11° NE
SL-16 R/B 2.2 18:49:45 10° SSW 18:55:18 60° ESE 19:00:54 10° NE
Cosmos 1092 Rocket 3.9 18:52:04 10° S 18:58:20 71° E 19:04:34 10° NNE
DMSP B5D1-3 4.5 18:54:37 10° NNE 18:59:46 87° WNW 19:04:53 10° SSW
Cosmos 836 Rocket 4.4 18:54:49 10° NNW 19:00:11 81° ENE 19:03:34 23° SSE
Resurs 01 Rocket 2.3 19:01:19 32° ENE 19:01:50 33° ENE 19:05:50 10° N
Terra 3.9 19:03:49 12° NE 19:03:49 12° NE 19:05:24 10° NNE
Cosmos 2278 Rocket 3.5 18:59:05 10° NNW 19:03:50 26° NE 19:05:42 22° ENE
SJ-6B 2.6 19:02:07 27° SSE 19:04:06 86° ENE 19:07:57 10° NNW
H-2A R/B 2.8 19:07:12 40° ENE 19:07:14 40° ENE 19:10:51 10° N
Cosmos 1437 Rocket 3.0 19:03:35 10° SSW 19:07:17 66° WNW 19:11:03 10° N
Cosmos 2263 Rocket 4.5 19:02:56 10° NW 19:07:21 23° WSW 19:11:43 10° SSW
Gbstr 26 Del rocket 4.5 19:00:01 10° WSW 19:07:42 73° SSE 19:12:38 27° E
Meteor 1-24 Rocket 3.9 19:03:56 10° NNW 19:09:13 69° W 19:14:33 10° S
Cosmos 1703 3.8 19:06:56 10° N 19:10:10 38° NE 19:10:10 38° NE
Resurs 1-3 3.5 19:11:26 35° SSE 19:13:15 75° ENE 19:17:39 10° NNW
Cosmos 2369 Rocket 4.5 19:10:26 10° NNW 19:13:17 14° N 19:16:07 10° NE
SL-4 R/B 4.4 19:12:06 10° W 19:15:13 19° SW 19:17:51 12° S
Cosmos 921 Rocket 3.8 19:11:16 10° N 19:15:27 35° ENE 19:15:35 35° ENE
MetOp-A 3.4 19:17:19 53° ENE 19:17:23 53° ENE 19:21:20 10° N
Okean-O 2.7 19:20:30 26° S 19:22:58 75° WSW 19:27:25 10° NNW
Cosmos 1844 3.8 19:17:43 10° NW 19:23:18 74° WSW 19:26:12 29° SSE
JB-3 4.3 19:20:06 10° NNE 19:23:49 61° ENE 19:23:49 61° ENE
CZ-4 R/B 3.4 19:20:50 10° SSW 19:24:30 29° W 19:28:10 10° NNW
Cosmos 1486 Rocket 4.0 19:19:34 10° S 19:24:45 55° ESE 19:29:58 10° NNE
OBJECT-B 2.1 19:24:56 28° W 19:24:58 28° W 19:27:16 10° NNW
IGS 5A 3.8 19:24:37 25° S 19:26:53 62° W 19:31:00 10° NNW
S3M 4.0 19:22:10 10° N 19:28:20 57° ENE 19:30:09 42° SE
DNEPR-1 R/B 4.0 19:24:04 10° SSW 19:28:46 56° SE 19:30:36 38° ENE
Cosmos 773 Rocket 4.0 19:24:27 10° NNW 19:29:47 70° ENE 19:31:00 51° ESE
Meteor 1-22 Rocket 4.4 19:24:21 10° SSW 19:29:49 71° WNW 19:35:32 10° N
Meteor 1-21 Rocket 4.3 19:25:01 10° N 19:30:30 56° ENE 19:31:34 48° ESE
Spot 2 4.1 19:31:04 60° ENE 19:31:04 60° ENE 19:35:23 10° N
Cosmos 2333 Rocket 4.3 19:36:34 12° NE 19:36:34 12° NE 19:36:57 10° NE
Cosmos 1300 Rocket 3.4 19:30:15 34° S 19:32:05 84° ESE 19:36:30 10° NNE
SPOT 5 4.3 19:36:15 23° NE 19:36:15 23° NE 19:39:08 10° N
Cosmos 2360 Rocket 2.1 19:34:17 10° SSW 19:39:50 63° ESE 19:45:25 10° NE
Cosmos 1782 Rocket 4.3 19:36:19 10° SSW 19:40:34 51° WNW 19:44:52 10° N
Cosmos 1025 Rocket 4.2 19:37:49 10° NNW 19:41:53 41° W 19:44:51 17° SSW
Cosmos 158 Rocket 3.7 19:39:51 10° NNW 19:44:43 66° ENE 19:44:48 66° ENE
Okean O Rocket 4.3 19:45:26 10° SW 19:48:23 18° W 19:51:21 10° NW
Cosmos 1417 Rocket 4.3 19:42:38 10° N 19:48:49 88° ENE 19:51:03 42° SSE
Cosmos 968 Rocket 4.4 19:46:01 10° SW 19:51:06 48° NW 19:56:10 10° NNE
Lacrosse 4 Rocket 2.6 19:48:00 10° SW 19:50:17 33° SW 19:50:17 33° SW
Cosmos 2026 Rocket 4.5 19:48:09 10° SSW 19:54:06 58° WNW 20:00:08 10° N
USA 186 4.2 19:55:51 18° WSW 19:56:59 21° W 19:59:39 10° NW
ATLAS 2AS CENTAUR R/B 3.5 19:52:23 10° NW 19:59:23 44° NNE 20:01:35 35° ENE
Okean 2 Rocket 4.2 20:03:33 35° NNE 20:03:33 35° NNE 20:06:12 10° NNE
Cosmos 1553 Rocket 4.4 19:56:17 10° NNW 20:02:33 61° W 20:06:33 23° SSW
MOS 1 4.2 20:01:33 58° S 20:02:43 82° WSW 20:08:27 10° NNW
Cosmos 1536 Rocket 3.9 20:00:56 10° NNW 20:04:42 62° NW 20:04:42 62° NW
deb Chang Zheng 4 4.2 20:05:56 49° W 20:05:56 49° W 20:09:55 10° NNW
ERS-1 Rocket 4.1 20:07:14 32° NNE 20:07:14 32° NNE 20:10:37 10° N
SPOT 1/Viking Rocket 3.6 20:07:53 69° SSW 20:08:21 74° WSW 20:13:32 10° NNW
Cosmos 2322 Rocket 2.5 20:03:18 10° SW 20:08:58 65° NW 20:14:41 10° NNE
NOSS 3-4 (A) 3.7 20:03:51 10° NW 20:10:37 89° SW 20:12:04 62° SE
NOSS 3-4 (C) 3.7 20:03:58 10° NW 20:10:43 89° SW 20:12:10 62° SE
SPOT 3 Rocket 4.0 20:15:04 52° NNE 20:15:04 52° NNE 20:19:15 10° N
Ariane Rocket 3.1 20:16:26 72° N 20:16:26 72° N 20:21:01 10° NNW
Cosmos 1980 Rocket 4.4 20:11:48 10° W 20:16:09 22° NNW 20:20:30 10° NNE
USA 215 3.5 20:24:15 46° NE 20:26:12 66° N 20:32:40 10° W
Aureole 1 Rocket 3.9 20:19:49 10° SSW 20:27:00 86° WNW 20:32:35 10° NNE
USA 281 3.3 20:27:40 60° ENE 20:27:49 60° NE 20:34:17 10° NNW
Meteor 1-16 Rocket 4.3 20:30:33 74° WSW 20:30:53 76° WNW 20:36:51 10° NNE
Cosmos 2315 Rocket 3.9 20:31:30 10° NNW 20:37:54 82° W 20:37:56 82° WSW
Resurs 01 Rocket 3.0 20:38:52 35° WNW 20:38:52 35° WNW 20:42:25 10° NNW
USA 245 4.5 20:39:31 64° NNW 20:39:31 64° NNW 20:43:49 10° NNW
Spot 2 Rocket 4.5 20:41:06 41° N 20:41:06 41° N 20:44:28 10° NNW
SL-16 R/B 3.6 20:34:33 10° WSW 20:39:45 36° NW 20:44:59 10° NNE
Cosmos 1943 Rocket 3.3 20:34:56 10° NNW 20:38:59 33° NNE 20:38:59 33° NNE
Terra 3.4 20:42:42 29° N 20:42:42 29° N 20:45:11 10° N
Cosmos 2278 Rocket 2.6 20:42:59 10° NNW 20:47:32 58° NNW 20:47:32 58° NNW
Gbstr 26 Del rocket 4.4 20:47:10 10° W 20:55:06 80° SSW 20:55:06 80° SSW
Cosmos 2369 Rocket 3.8 20:54:43 10° NNW 20:58:48 25° NNE 20:58:48 25° NNE
Cosmos 2219 Rocket 4.3 21:05:13 17° NNE 21:05:13 17° NNE 21:06:30 10° NNE
SeaSat 1 4.4 21:04:57 22° NNE 21:04:57 22° NNE 21:07:34 10° NNW
SJ 16-02 4.3 21:16:00 10° N 21:16:00 10° N 21:16:05 10° N
Cosmos 2333 Rocket 3.7 21:18:31 30° NNE 21:18:31 30° NNE 21:21:30 10° NNE
Cosmos 2360 Rocket 3.6 21:19:05 10° WSW 21:24:13 34° NW 21:29:22 10° NNE
ATLAS 2AS CENTAUR R/B 3.4 21:43:47 10° NW 21:49:00 51° NW 21:49:00 51° NW
Cosmos 2322 Rocket 4.4 21:49:50 10° W 21:54:09 22° NNW 21:58:30 10° NNE
USA 215 4.3 22:11:36 40° WNW 22:11:36 40° WNW 22:15:33 10° WNW
Cosmos 1943 Rocket 4.3 22:18:38 10° NW 22:20:29 21° NW 22:20:29 21° NW
Cosmos 2369 Rocket 4.3 22:38:34 10° NNW 22:40:34 23° NNW 22:40:34 23° NNW
Cosmos 2219 Rocket 4.3 22:46:54 22° NNW 22:46:54 22° NNW 22:50:14 10° NNE
Cosmos 2237 Rocket 4.5 23:13:46 19° NNE 23:13:46 19° NNE 23:15:32 10° NNE
SL-16 R/B 4.3 23:57:33 22° NNE 23:57:33 22° NNE 23:59:35 10° NNE
